Time,TemperatureF,DewpointF,PressureIn,WindDirection,WindDirectionDegrees,WindSpeedMPH,WindSpeedGustMPH,Humidity,HourlyPrecipIn,Conditions,Clouds,dailyrainin,SoftwareType,DateUTC
2013-07-16 00:02:00,73.9,69.4,30.27,WSW,240,0.0,0.0,86,0.00,,,0.00,Wunderground v.1.15,2013-07-16 04:02:00,
2013-07-16 00:06:00,73.8,69.0,30.27,SW,235,0.0,0.0,85,0.00,,,0.00,Wunderground v.1.15,2013-07-16 04:06:00,
2013-07-16 00:08:00,73.9,69.1,30.27,SW,235,0.0,0.0,85,0.00,,,0.00,Wunderground v.1.15,2013-07-16 04:08:00,
2013-07-16 00:13:00,74.0,68.9,30.27,SW,236,0.0,0.0,84,0.00,,,0.00,Wunderground v.1.15,2013-07-16 04:13:00,
2013-07-16 00:20:00,74.0,68.9,30.27,SW,236,0.0,0.0,84,0.00,,,0.00,Wunderground v.1.15,2013-07-16 04:20:00,
2013-07-16 00:22:00,74.0,68.9,30.28,SW,236,0.0,0.0,84,0.00,,,0.00,Wunderground v.1.15,2013-07-16 04:22:00,
2013-07-16 00:28:00,73.9,68.8,30.28,WSW,237,0.0,0.0,84,0.00,,,0.00,Wunderground v.1.15,2013-07-16 04:28:00,
2013-07-16 00:34:00,73.8,68.7,30.28,WSW,239,0.0,0.0,84,0.00,,,0.00,Wunderground v.1.15,2013-07-16 04:34:00,
2013-07-16 00:40:00,74.0,68.2,30.28,SW,232,0.0,0.0,82,0.00,,,0.00,Wunderground v.1.15,2013-07-16 04:40:00,
2013-07-16 00:46:00,74.3,68.1,30.28,SW,230,0.0,0.0,81,0.00,,,0.00,Wunderground v.1.15,2013-07-16 04:46:00,
2013-07-16 00:52:00,74.4,68.2,30.28,SW,235,0.0,0.0,81,0.00,,,0.00,Wunderground v.1.15,2013-07-16 04:52:00,
2013-07-16 00:58:00,74.4,67.8,30.28,West,277,0.0,0.0,80,0.00,,,0.00,Wunderground v.1.15,2013-07-16 04:58:00,
2013-07-16 01:04:00,74.1,68.3,30.28,NW,317,0.0,0.0,82,0.00,,,0.00,Wunderground v.1.15,2013-07-16 05:04:00,
2013-07-16 01:10:00,73.4,68.3,30.28,NW,317,0.0,0.0,84,0.00,,,0.00,Wunderground v.1.15,2013-07-16 05:10:00,
2013-07-16 01:15:00,73.3,67.8,30.28,NW,314,0.0,0.0,83,0.00,,,0.00,Wunderground v.1.15,2013-07-16 05:15:00,
2013-07-16 01:21:00,73.1,67.6,30.28,NW,315,0.0,0.0,83,0.00,,,0.00,Wunderground v.1.15,2013-07-16 05:21:00,
2013-07-16 01:28:00,73.0,67.5,30.28,NW,309,0.0,0.0,83,0.00,,,0.00,Wunderground v.1.15,2013-07-16 05:28:00,
2013-07-16 01:34:00,72.9,67.8,30.28,NW,309,0.0,0.0,84,0.00,,,0.00,Wunderground v.1.15,2013-07-16 05:34:00,
2013-07-16 01:42:00,72.6,67.8,30.28,NW,307,0.0,0.0,85,0.00,,,0.00,Wunderground v.1.15,2013-07-16 05:42:00,
2013-07-16 01:48:00,72.5,67.4,30.28,WSW,256,0.0,0.0,84,0.00,,,0.00,Wunderground v.1.15,2013-07-16 05:48:00,
2013-07-16 01:54:00,72.4,67.3,30.28,WSW,243,0.0,0.0,84,0.00,,,0.00,Wunderground v.1.15,2013-07-16 05:54:00,
2013-07-16 02:00:00,72.4,67.3,30.28,WSW,245,0.0,0.0,84,0.00,,,0.00,Wunderground v.1.15,2013-07-16 06:00:00,
2013-07-16 02:06:00,72.4,67.3,30.28,WSW,244,0.0,0.0,84,0.00,,,0.00,Wunderground v.1.15,2013-07-16 06:06:00,
2013-07-16 02:12:00,72.2,67.4,30.28,WSW,245,0.0,0.0,85,0.00,,,0.00,Wunderground v.1.15,2013-07-16 06:12:00,
2013-07-16 02:18:00,72.0,67.2,30.28,WSW,244,0.0,0.0,85,0.00,,,0.00,Wunderground v.1.15,2013-07-16 06:18:00,
2013-07-16 02:24:00,72.2,67.4,30.28,West,263,0.0,0.0,85,0.00,,,0.00,Wunderground v.1.15,2013-07-16 06:24:00,
2013-07-16 02:30:00,72.1,67.3,30.28,West,262,0.0,0.0,85,0.00,,,0.00,Wunderground v.1.15,2013-07-16 06:30:00,
2013-07-16 02:36:00,71.9,67.5,30.28,WSW,257,0.0,0.0,86,0.00,,,0.00,Wunderground v.1.15,2013-07-16 06:36:00,
2013-07-16 02:42:00,71.9,67.5,30.28,WSW,255,0.0,0.0,86,0.00,,,0.00,Wunderground v.1.15,2013-07-16 06:42:00,
2013-07-16 02:48:00,71.6,67.2,30.28,WSW,254,0.0,0.0,86,0.00,,,0.00,Wunderground v.1.15,2013-07-16 06:48:00,
2013-07-16 02:53:00,71.7,67.3,30.28,WSW,255,0.0,0.0,86,0.00,,,0.00,Wunderground v.1.15,2013-07-16 06:53:00,
2013-07-16 03:00:00,71.8,67.0,30.28,WSW,255,0.0,0.0,85,0.00,,,0.00,Wunderground v.1.15,2013-07-16 07:00:00,
2013-07-16 03:06:00,71.8,67.0,30.28,WSW,254,0.0,0.0,85,0.00,,,0.00,Wunderground v.1.15,2013-07-16 07:06:00,
2013-07-16 03:12:00,71.5,67.1,30.28,WSW,254,0.0,0.0,86,0.00,,,0.00,Wunderground v.1.15,2013-07-16 07:12:00,
2013-07-16 03:18:00,71.2,66.8,30.28,WSW,255,0.0,0.0,86,0.00,,,0.00,Wunderground v.1.15,2013-07-16 07:18:00,
2013-07-16 03:24:00,71.1,66.7,30.28,WSW,255,0.0,0.0,86,0.00,,,0.00,Wunderground v.1.15,2013-07-16 07:24:00,
2013-07-16 03:30:00,70.9,66.8,30.28,WSW,254,0.0,0.0,87,0.00,,,0.00,Wunderground v.1.15,2013-07-16 07:30:00,
2013-07-16 03:35:00,70.7,66.6,30.28,WSW,245,0.0,0.0,87,0.00,,,0.00,Wunderground v.1.15,2013-07-16 07:35:00,
2013-07-16 03:42:00,70.6,66.5,30.28,WSW,244,0.0,0.0,87,0.00,,,0.00,Wunderground v.1.15,2013-07-16 07:42:00,
2013-07-16 03:48:00,70.5,66.8,30.28,NW,307,0.0,0.0,88,0.00,,,0.00,Wunderground v.1.15,2013-07-16 07:48:00,
2013-07-16 03:54:00,71.2,67.1,30.28,WNW,299,0.0,0.0,87,0.00,,,0.00,Wunderground v.1.15,2013-07-16 07:54:00,
2013-07-16 04:00:00,71.0,67.3,30.28,WNW,288,0.0,0.0,88,0.00,,,0.00,Wunderground v.1.15,2013-07-16 08:00:00,
2013-07-16 04:06:00,71.0,67.6,30.28,WNW,293,0.0,0.0,89,0.00,,,0.00,Wunderground v.1.15,2013-07-16 08:06:00,
2013-07-16 04:12:00,70.8,67.1,30.28,WNW,292,0.0,0.0,88,0.00,,,0.00,Wunderground v.1.15,2013-07-16 08:12:00,
2013-07-16 04:18:00,70.7,67.0,30.28,WNW,293,0.0,0.0,88,0.00,,,0.00,Wunderground v.1.15,2013-07-16 08:18:00,
2013-07-16 04:23:00,70.7,67.0,30.28,WNW,292,0.0,0.0,88,0.00,,,0.00,Wunderground v.1.15,2013-07-16 08:23:00,
2013-07-16 04:30:00,70.7,66.6,30.28,West,277,0.0,0.0,87,0.00,,,0.00,Wunderground v.1.15,2013-07-16 08:30:00,
2013-07-16 04:36:00,70.9,66.8,30.28,West,264,0.0,0.0,87,0.00,,,0.00,Wunderground v.1.15,2013-07-16 08:36:00,
2013-07-16 04:42:00,70.8,66.7,30.27,West,264,0.0,0.0,87,0.00,,,0.00,Wunderground v.1.15,2013-07-16 08:42:00,
2013-07-16 04:48:00,70.4,66.3,30.28,West,264,0.0,0.0,87,0.00,,,0.00,Wunderground v.1.15,2013-07-16 08:48:00,
2013-07-16 04:54:00,70.2,66.5,30.28,West,264,0.0,0.0,88,0.00,,,0.00,Wunderground v.1.15,2013-07-16 08:54:00,
2013-07-16 05:00:00,70.1,66.7,30.28,West,263,0.0,0.0,89,0.00,,,0.00,Wunderground v.1.15,2013-07-16 09:00:00,
2013-07-16 05:05:00,69.9,66.2,30.28,WSW,255,0.0,0.0,88,0.00,,,0.00,Wunderground v.1.15,2013-07-16 09:05:00,
2013-07-16 05:11:00,69.6,66.5,30.28,SW,236,0.0,0.0,90,0.00,,,0.00,Wunderground v.1.15,2013-07-16 09:11:00,
2013-07-16 05:18:00,69.6,66.5,30.28,SW,236,0.0,0.0,90,0.00,,,0.00,Wunderground v.1.15,2013-07-16 09:18:00,
2013-07-16 05:24:00,69.9,66.8,30.28,SW,236,0.0,0.0,90,0.00,,,0.00,Wunderground v.1.15,2013-07-16 09:24:00,
2013-07-16 05:29:00,70.0,66.9,30.28,SW,236,0.0,0.0,90,0.00,,,0.00,Wunderground v.1.15,2013-07-16 09:29:00,
2013-07-16 05:36:00,69.9,66.8,30.28,SW,236,0.0,0.0,90,0.00,,,0.00,Wunderground v.1.15,2013-07-16 09:36:00,
2013-07-16 05:41:00,69.7,66.6,30.28,SW,232,0.0,0.0,90,0.00,,,0.00,Wunderground v.1.15,2013-07-16 09:41:00,
2013-07-16 05:48:00,69.8,66.7,30.29,SW,232,0.0,0.0,90,0.00,,,0.00,Wunderground v.1.15,2013-07-16 09:48:00,
2013-07-16 05:54:00,69.6,66.5,30.29,SW,232,0.0,0.0,90,0.00,,,0.00,Wunderground v.1.15,2013-07-16 09:54:00,
2013-07-16 06:00:00,69.4,66.7,30.29,SW,232,0.0,0.0,91,0.00,,,0.00,Wunderground v.1.15,2013-07-16 10:00:00,
2013-07-16 06:06:00,69.4,66.7,30.29,SW,231,0.0,0.0,91,0.00,,,0.00,Wunderground v.1.15,2013-07-16 10:06:00,
2013-07-16 06:12:00,69.3,66.6,30.29,SW,231,0.0,0.0,91,0.00,,,0.00,Wunderground v.1.15,2013-07-16 10:12:00,
2013-07-16 06:18:00,69.3,66.6,30.29,SW,231,0.0,0.0,91,0.00,,,0.00,Wunderground v.1.15,2013-07-16 10:18:00,
2013-07-16 06:24:00,69.2,66.5,30.29,SW,231,0.0,0.0,91,0.00,,,0.00,Wunderground v.1.15,2013-07-16 10:24:00,
2013-07-16 06:29:00,69.0,66.3,30.30,SW,231,0.0,0.0,91,0.00,,,0.00,Wunderground v.1.15,2013-07-16 10:29:00,
2013-07-16 06:36:00,69.0,66.3,30.30,SW,231,0.0,0.0,91,0.00,,,0.00,Wunderground v.1.15,2013-07-16 10:36:00,
2013-07-16 06:42:00,68.9,66.2,30.30,SW,231,0.0,0.0,91,0.00,,,0.00,Wunderground v.1.15,2013-07-16 10:42:00,
2013-07-16 06:48:00,69.2,66.5,30.30,WSW,242,0.0,0.0,91,0.00,,,0.00,Wunderground v.1.15,2013-07-16 10:48:00,
2013-07-16 06:54:00,69.7,66.6,30.30,WSW,250,0.0,0.0,90,0.00,,,0.00,Wunderground v.1.15,2013-07-16 10:54:00,
2013-07-16 07:00:00,70.6,67.2,30.30,WNW,292,0.0,0.0,89,0.00,,,0.00,Wunderground v.1.15,2013-07-16 11:00:00,
2013-07-16 07:06:00,70.8,67.1,30.31,SW,214,0.0,0.0,88,0.00,,,0.00,Wunderground v.1.15,2013-07-16 11:06:00,
2013-07-16 07:12:00,71.7,68.0,30.31,SW,218,0.0,0.0,88,0.00,,,0.00,Wunderground v.1.15,2013-07-16 11:12:00,
2013-07-16 07:18:00,72.9,68.5,30.31,West,262,0.0,0.0,86,0.00,,,0.00,Wunderground v.1.15,2013-07-16 11:18:00,
2013-07-16 07:24:00,74.0,69.2,30.31,West,262,0.0,0.0,85,0.00,,,0.00,Wunderground v.1.15,2013-07-16 11:24:00,
2013-07-16 07:30:00,75.1,69.6,30.31,West,262,0.0,0.0,83,0.00,,,0.00,Wunderground v.1.15,2013-07-16 11:30:00,
2013-07-16 07:35:00,75.8,69.9,30.31,West,262,0.0,1.0,82,0.00,,,0.00,Wunderground v.1.15,2013-07-16 11:35:00,
2013-07-16 07:41:00,76.4,70.1,30.31,NW,309,0.0,0.0,81,0.00,,,0.00,Wunderground v.1.15,2013-07-16 11:41:00,
2013-07-16 07:47:00,76.1,69.8,30.31,NW,312,0.0,1.0,81,0.00,,,0.00,Wunderground v.1.15,2013-07-16 11:47:00,
2013-07-16 07:53:00,76.0,70.1,30.31,NW,311,0.0,1.0,82,0.00,,,0.00,Wunderground v.1.15,2013-07-16 11:53:00,
2013-07-16 08:00:00,76.0,70.5,30.32,NW,309,1.0,2.0,83,0.00,,,0.00,Wunderground v.1.15,2013-07-16 12:00:00,
2013-07-16 08:06:00,76.2,70.7,30.32,NW,316,1.0,2.0,83,0.00,,,0.00,Wunderground v.1.15,2013-07-16 12:06:00,
2013-07-16 08:11:00,76.4,70.5,30.32,NNW,347,1.0,2.0,82,0.00,,,0.00,Wunderground v.1.15,2013-07-16 12:11:00,
2013-07-16 08:17:00,76.4,70.9,30.32,NW,321,1.0,2.0,83,0.00,,,0.00,Wunderground v.1.15,2013-07-16 12:17:00,
2013-07-16 08:24:00,76.3,70.8,30.32,North,3,2.0,4.0,83,0.00,,,0.00,Wunderground v.1.15,2013-07-16 12:24:00,
2013-07-16 08:30:00,76.5,70.6,30.32,NNW,327,3.0,3.0,82,0.00,,,0.00,Wunderground v.1.15,2013-07-16 12:30:00,
2013-07-16 08:36:00,76.6,70.0,30.32,NNE,23,2.0,5.0,80,0.00,,,0.00,Wunderground v.1.15,2013-07-16 12:36:00,
2013-07-16 08:42:00,76.2,70.7,30.33,NNE,15,3.0,5.0,83,0.00,,,0.00,Wunderground v.1.15,2013-07-16 12:42:00,
2013-07-16 08:48:00,76.2,70.7,30.33,NNE,25,4.0,5.0,83,0.00,,,0.00,Wunderground v.1.15,2013-07-16 12:48:00,
2013-07-16 08:54:00,76.5,71.3,30.33,North,4,3.0,4.0,84,0.00,,,0.00,Wunderground v.1.15,2013-07-16 12:54:00,
2013-07-16 09:00:00,76.8,70.5,30.33,NNE,14,3.0,5.0,81,0.00,,,0.00,Wunderground v.1.15,2013-07-16 13:00:00,
2013-07-16 09:05:00,76.8,70.5,30.33,NNE,13,3.0,5.0,81,0.00,,,0.00,Wunderground v.1.15,2013-07-16 13:05:00,
2013-07-16 09:12:00,77.0,70.4,30.33,NNE,20,3.0,4.0,80,0.00,,,0.00,Wunderground v.1.15,2013-07-16 13:12:00,
2013-07-16 09:18:00,77.3,70.6,30.33,NNW,327,4.0,4.0,80,0.00,,,0.00,Wunderground v.1.15,2013-07-16 13:18:00,
2013-07-16 09:24:00,77.4,70.7,30.33,NNW,337,4.0,5.0,80,0.00,,,0.00,Wunderground v.1.15,2013-07-16 13:24:00,
2013-07-16 09:30:00,77.8,70.0,30.33,NNW,335,4.0,4.0,77,0.00,,,0.00,Wunderground v.1.15,2013-07-16 13:30:00,
2013-07-16 09:36:00,78.0,69.8,30.34,North,5,3.0,4.0,76,0.00,,,0.00,Wunderground v.1.15,2013-07-16 13:36:00,
2013-07-16 09:42:00,78.5,70.7,30.34,North,3,3.0,3.0,77,0.00,,,0.00,Wunderground v.1.15,2013-07-16 13:42:00,
2013-07-16 09:48:00,78.5,70.3,30.34,NNW,335,2.0,5.0,76,0.00,,,0.00,Wunderground v.1.15,2013-07-16 13:48:00,
2013-07-16 09:54:00,78.7,70.5,30.34,North,352,3.0,6.0,76,0.00,,,0.00,Wunderground v.1.15,2013-07-16 13:54:00,
2013-07-16 10:00:00,78.7,70.5,30.34,NNW,328,3.0,3.0,76,0.00,,,0.00,Wunderground v.1.15,2013-07-16 14:00:00,
2013-07-16 10:05:00,78.8,70.6,30.34,NNE,33,3.0,3.0,76,0.00,,,0.00,Wunderground v.1.15,2013-07-16 14:05:00,
2013-07-16 10:12:00,78.9,70.7,30.34,North,11,3.0,3.0,76,0.00,,,0.00,Wunderground v.1.15,2013-07-16 14:12:00,
2013-07-16 10:18:00,78.9,71.1,30.34,North,6,3.0,4.0,77,0.00,,,0.00,Wunderground v.1.15,2013-07-16 14:18:00,
2013-07-16 10:24:00,79.1,69.7,30.33,NNE,23,3.0,3.0,73,0.00,,,0.00,Wunderground v.1.15,2013-07-16 14:24:00,
2013-07-16 10:30:00,79.8,70.4,30.34,North,359,1.0,1.0,73,0.00,,,0.00,Wunderground v.1.15,2013-07-16 14:30:00,
2013-07-16 10:36:00,80.5,69.8,30.34,North,360,1.0,1.0,70,0.00,,,0.00,Wunderground v.1.15,2013-07-16 14:36:00,
2013-07-16 10:42:00,80.9,70.6,30.34,NNE,22,1.0,1.0,71,0.00,,,0.00,Wunderground v.1.15,2013-07-16 14:42:00,
2013-07-16 10:48:00,81.3,70.6,30.34,NE,41,1.0,3.0,70,0.00,,,0.00,Wunderground v.1.15,2013-07-16 14:48:00,
2013-07-16 10:54:00,80.9,70.6,30.34,North,4,2.0,2.0,71,0.00,,,0.00,Wunderground v.1.15,2013-07-16 14:54:00,
2013-07-16 11:00:00,81.0,69.0,30.34,NE,38,2.0,3.0,67,0.00,,,0.00,Wunderground v.1.15,2013-07-16 15:00:00,
2013-07-16 11:06:00,80.9,70.6,30.33,NNE,33,2.0,3.0,71,0.00,,,0.00,Wunderground v.1.15,2013-07-16 15:06:00,
2013-07-16 11:11:00,80.8,70.9,30.34,NE,36,2.0,3.0,72,0.00,,,0.00,Wunderground v.1.15,2013-07-16 15:11:00,
2013-07-16 11:18:00,80.8,69.7,30.33,NNE,26,2.0,3.0,69,0.00,,,0.00,Wunderground v.1.15,2013-07-16 15:18:00,
2013-07-16 11:24:00,81.1,70.4,30.33,North,7,2.0,2.0,70,0.00,,,0.00,Wunderground v.1.15,2013-07-16 15:24:00,
2013-07-16 11:29:00,81.9,71.2,30.33,NE,37,1.0,2.0,70,0.00,,,0.00,Wunderground v.1.15,2013-07-16 15:29:00,
2013-07-16 11:36:00,81.9,72.4,30.33,NNE,16,2.0,3.0,73,0.00,,,0.00,Wunderground v.1.15,2013-07-16 15:36:00,
2013-07-16 11:42:00,81.7,70.5,30.33,NNE,26,3.0,3.0,69,0.00,,,0.00,Wunderground v.1.15,2013-07-16 15:42:00,
2013-07-16 11:48:00,81.5,69.9,30.33,NNE,27,4.0,5.0,68,0.00,,,0.00,Wunderground v.1.15,2013-07-16 15:48:00,
2013-07-16 11:54:00,81.2,70.5,30.33,NNE,27,4.0,4.0,70,0.00,,,0.00,Wunderground v.1.15,2013-07-16 15:54:00,
2013-07-16 11:59:00,81.3,71.0,30.32,NE,36,4.0,4.0,71,0.00,,,0.00,Wunderground v.1.15,2013-07-16 15:59:00,
2013-07-16 12:06:00,81.4,71.9,30.32,NNE,23,4.0,6.0,73,0.00,,,0.00,Wunderground v.1.15,2013-07-16 16:06:00,
2013-07-16 12:12:00,81.4,71.1,30.32,NNE,30,5.0,5.0,71,0.00,,,0.00,Wunderground v.1.15,2013-07-16 16:12:00,
2013-07-16 12:17:00,81.5,70.8,30.32,NNE,23,5.0,6.0,70,0.00,,,0.00,Wunderground v.1.15,2013-07-16 16:17:00,
2013-07-16 12:23:00,81.5,71.2,30.32,NNE,27,5.0,6.0,71,0.00,,,0.00,Wunderground v.1.15,2013-07-16 16:23:00,
2013-07-16 12:30:00,81.7,71.8,30.32,NNE,18,5.0,6.0,72,0.00,,,0.00,Wunderground v.1.15,2013-07-16 16:30:00,
2013-07-16 12:36:00,81.8,71.9,30.31,NNE,25,5.0,6.0,72,0.00,,,0.00,Wunderground v.1.15,2013-07-16 16:36:00,
2013-07-16 12:42:00,82.0,72.1,30.31,NNE,20,5.0,5.0,72,0.00,,,0.00,Wunderground v.1.15,2013-07-16 16:42:00,
2013-07-16 12:48:00,82.2,71.4,30.31,NE,37,4.0,5.0,70,0.00,,,0.00,Wunderground v.1.15,2013-07-16 16:48:00,
2013-07-16 12:54:00,82.5,72.1,30.31,NNE,20,4.0,4.0,71,0.00,,,0.00,Wunderground v.1.15,2013-07-16 16:54:00,
2013-07-16 13:00:00,82.7,71.5,30.31,NNE,16,4.0,4.0,69,0.00,,,0.00,Wunderground v.1.15,2013-07-16 17:00:00,
2013-07-16 13:05:00,82.9,72.1,30.31,NNE,25,3.0,4.0,70,0.00,,,0.00,Wunderground v.1.15,2013-07-16 17:05:00,
2013-07-16 13:12:00,83.3,72.1,30.30,NE,48,3.0,3.0,69,0.00,,,0.00,Wunderground v.1.15,2013-07-16 17:12:00,
2013-07-16 13:17:00,83.6,73.6,30.30,NE,39,3.0,4.0,72,0.00,,,0.00,Wunderground v.1.15,2013-07-16 17:17:00,
2013-07-16 13:24:00,83.5,72.3,30.30,NE,37,4.0,4.0,69,0.00,,,0.00,Wunderground v.1.15,2013-07-16 17:24:00,
2013-07-16 13:30:00,83.6,71.9,30.30,NNE,21,4.0,5.0,68,0.00,,,0.00,Wunderground v.1.15,2013-07-16 17:30:00,
2013-07-16 13:36:00,83.6,71.0,30.29,NNE,33,4.0,5.0,66,0.00,,,0.00,Wunderground v.1.15,2013-07-16 17:36:00,
2013-07-16 13:42:00,83.8,71.7,30.29,NNE,33,4.0,4.0,67,0.00,,,0.00,Wunderground v.1.15,2013-07-16 17:42:00,
2013-07-16 13:48:00,84.0,71.0,30.29,NNE,33,4.0,4.0,65,0.00,,,0.00,Wunderground v.1.15,2013-07-16 17:48:00,
2013-07-16 13:54:00,84.2,71.2,30.29,NNE,30,3.0,4.0,65,0.00,,,0.00,Wunderground v.1.15,2013-07-16 17:54:00,
2013-07-16 14:00:00,84.3,71.7,30.29,NE,34,4.0,4.0,66,0.00,,,0.00,Wunderground v.1.15,2013-07-16 18:00:00,
2013-07-16 14:06:00,84.3,70.8,30.29,NE,37,4.0,4.0,64,0.00,,,0.00,Wunderground v.1.15,2013-07-16 18:06:00,
2013-07-16 14:12:00,84.4,70.9,30.29,NNE,33,4.0,4.0,64,0.00,,,0.00,Wunderground v.1.15,2013-07-16 18:12:00,
2013-07-16 14:17:00,84.8,71.3,30.28,NNE,30,2.0,4.0,64,0.00,,,0.00,Wunderground v.1.15,2013-07-16 18:17:00,
2013-07-16 14:24:00,85.2,70.2,30.28,NNE,24,0.0,3.0,61,0.00,,,0.00,Wunderground v.1.15,2013-07-16 18:24:00,
2013-07-16 14:30:00,85.2,70.2,30.28,NNE,13,2.0,6.0,61,0.00,,,0.00,Wunderground v.1.15,2013-07-16 18:30:00,
2013-07-16 14:36:00,85.1,70.1,30.27,NNE,16,4.0,6.0,61,0.00,,,0.00,Wunderground v.1.15,2013-07-16 18:36:00,
2013-07-16 14:42:00,85.2,69.7,30.27,NNE,12,4.0,6.0,60,0.00,,,0.00,Wunderground v.1.15,2013-07-16 18:42:00,
2013-07-16 14:48:00,85.1,69.7,30.27,NNE,15,5.0,6.0,60,0.00,,,0.00,Wunderground v.1.15,2013-07-16 18:48:00,
2013-07-16 14:53:00,85.3,69.3,30.27,NNE,16,4.0,5.0,59,0.00,,,0.00,Wunderground v.1.15,2013-07-16 18:53:00,
2013-07-16 14:59:00,85.6,70.1,30.27,NNE,33,2.0,2.0,60,0.00,,,0.00,Wunderground v.1.15,2013-07-16 18:59:00,
2013-07-16 15:06:00,85.8,69.3,30.27,NNE,32,1.0,3.0,58,0.00,,,0.00,Wunderground v.1.15,2013-07-16 19:06:00,
2013-07-16 15:12:00,85.7,68.2,30.26,NNE,12,3.0,4.0,56,0.00,,,0.00,Wunderground v.1.15,2013-07-16 19:12:00,
2013-07-16 15:17:00,85.8,69.8,30.26,NNE,16,4.0,4.0,59,0.00,,,0.00,Wunderground v.1.15,2013-07-16 19:17:00,
2013-07-16 15:24:00,85.7,69.2,30.26,NNE,23,3.0,4.0,58,0.00,,,0.00,Wunderground v.1.15,2013-07-16 19:24:00,
2013-07-16 15:30:00,85.8,70.3,30.26,North,3,3.0,3.0,60,0.00,,,0.00,Wunderground v.1.15,2013-07-16 19:30:00,
2013-07-16 15:36:00,85.9,69.9,30.26,North,9,2.0,4.0,59,0.00,,,0.00,Wunderground v.1.15,2013-07-16 19:36:00,
2013-07-16 15:42:00,86.0,69.5,30.26,NNE,22,3.0,3.0,58,0.00,,,0.00,Wunderground v.1.15,2013-07-16 19:42:00,
2013-07-16 15:48:00,86.1,69.1,30.26,NNE,18,3.0,3.0,57,0.00,,,0.00,Wunderground v.1.15,2013-07-16 19:48:00,
2013-07-16 15:54:00,86.1,69.1,30.26,NNE,18,3.0,5.0,57,0.00,,,0.00,Wunderground v.1.15,2013-07-16 19:54:00,
2013-07-16 16:00:00,86.1,69.6,30.26,NNE,18,3.0,4.0,58,0.00,,,0.00,Wunderground v.1.15,2013-07-16 20:00:00,
2013-07-16 16:05:00,86.1,70.1,30.26,NNE,12,3.0,4.0,59,0.00,,,0.00,Wunderground v.1.15,2013-07-16 20:05:00,
2013-07-16 16:12:00,86.2,70.2,30.26,NNE,18,3.0,3.0,59,0.00,,,0.00,Wunderground v.1.15,2013-07-16 20:12:00,
2013-07-16 16:18:00,86.2,69.7,30.25,North,354,3.0,5.0,58,0.00,,,0.00,Wunderground v.1.15,2013-07-16 20:18:00,
2013-07-16 16:24:00,86.4,70.9,30.25,NNE,25,3.0,5.0,60,0.00,,,0.00,Wunderground v.1.15,2013-07-16 20:24:00,
2013-07-16 16:30:00,86.5,70.5,30.25,NNE,16,3.0,3.0,59,0.00,,,0.00,Wunderground v.1.15,2013-07-16 20:30:00,
2013-07-16 16:35:00,86.6,69.6,30.25,North,4,3.0,5.0,57,0.00,,,0.00,Wunderground v.1.15,2013-07-16 20:35:00,
2013-07-16 16:41:00,86.7,70.2,30.25,NNE,18,3.0,3.0,58,0.00,,,0.00,Wunderground v.1.15,2013-07-16 20:41:00,
2013-07-16 16:48:00,86.8,70.8,30.25,North,9,3.0,5.0,59,0.00,,,0.00,Wunderground v.1.15,2013-07-16 20:48:00,
2013-07-16 16:54:00,87.0,70.4,30.25,NNE,25,1.0,3.0,58,0.00,,,0.00,Wunderground v.1.15,2013-07-16 20:54:00,
2013-07-16 17:00:00,87.2,70.6,30.25,NNE,16,2.0,2.0,58,0.00,,,0.00,Wunderground v.1.15,2013-07-16 21:00:00,
2013-07-16 17:06:00,87.3,69.2,30.25,North,354,3.0,5.0,55,0.00,,,0.00,Wunderground v.1.15,2013-07-16 21:06:00,
2013-07-16 17:12:00,87.4,71.3,30.24,NNE,15,2.0,2.0,59,0.00,,,0.00,Wunderground v.1.15,2013-07-16 21:12:00,
2013-07-16 17:18:00,87.4,69.8,30.25,North,5,1.0,2.0,56,0.00,,,0.00,Wunderground v.1.15,2013-07-16 21:18:00,
2013-07-16 17:24:00,87.3,69.7,30.24,North,354,2.0,4.0,56,0.00,,,0.00,Wunderground v.1.15,2013-07-16 21:24:00,
2013-07-16 17:30:00,87.3,70.2,30.25,North,9,3.0,3.0,57,0.00,,,0.00,Wunderground v.1.15,2013-07-16 21:30:00,
2013-07-16 17:36:00,87.3,70.2,30.24,NNW,337,2.0,4.0,57,0.00,,,0.00,Wunderground v.1.15,2013-07-16 21:36:00,
2013-07-16 17:42:00,87.6,70.0,30.24,NW,319,1.0,1.0,56,0.00,,,0.00,Wunderground v.1.15,2013-07-16 21:42:00,
2013-07-16 17:48:00,87.7,69.5,30.24,NNE,23,1.0,3.0,55,0.00,,,0.00,Wunderground v.1.15,2013-07-16 21:48:00,
2013-07-16 17:54:00,87.5,70.4,30.24,North,4,2.0,5.0,57,0.00,,,0.00,Wunderground v.1.15,2013-07-16 21:54:00,
2013-07-16 18:02:00,87.4,69.8,30.24,North,8,2.0,3.0,56,0.00,,,0.00,Wunderground v.1.15,2013-07-16 22:02:00,
2013-07-16 18:07:00,87.4,69.8,30.24,NNE,22,2.0,3.0,56,0.00,,,0.00,Wunderground v.1.15,2013-07-16 22:07:00,
2013-07-16 18:13:00,87.3,69.2,30.24,NNE,24,1.0,3.0,55,0.00,,,0.00,Wunderground v.1.15,2013-07-16 22:13:00,
2013-07-16 18:20:00,87.3,70.7,30.24,NNE,16,1.0,1.0,58,0.00,,,0.00,Wunderground v.1.15,2013-07-16 22:20:00,
2013-07-16 18:26:00,87.3,70.7,30.24,NNE,19,0.0,1.0,58,0.00,,,0.00,Wunderground v.1.15,2013-07-16 22:26:00,
2013-07-16 18:32:00,87.3,70.2,30.24,NNE,19,0.0,0.0,57,0.00,,,0.00,Wunderground v.1.15,2013-07-16 22:32:00,
2013-07-16 18:38:00,87.2,70.6,30.24,NNE,15,2.0,5.0,58,0.00,,,0.00,Wunderground v.1.15,2013-07-16 22:38:00,
2013-07-16 18:44:00,87.1,70.0,30.23,NNE,14,3.0,4.0,57,0.00,,,0.00,Wunderground v.1.15,2013-07-16 22:44:00,
2013-07-16 18:49:00,87.1,71.0,30.23,NNE,12,3.0,3.0,59,0.00,,,0.00,Wunderground v.1.15,2013-07-16 22:49:00,
2013-07-16 18:56:00,87.1,71.0,30.24,North,10,2.0,3.0,59,0.00,,,0.00,Wunderground v.1.15,2013-07-16 22:56:00,
2013-07-16 19:02:00,87.1,71.5,30.23,NNE,31,1.0,2.0,60,0.00,,,0.00,Wunderground v.1.15,2013-07-16 23:02:00,
2013-07-16 19:07:00,87.0,71.4,30.23,North,10,0.0,2.0,60,0.00,,,0.00,Wunderground v.1.15,2013-07-16 23:07:00,
2013-07-16 19:14:00,87.1,71.0,30.23,NNE,18,0.0,0.0,59,0.00,,,0.00,Wunderground v.1.15,2013-07-16 23:14:00,
2013-07-16 19:20:00,87.1,70.5,30.24,NNE,15,0.0,0.0,58,0.00,,,0.00,Wunderground v.1.15,2013-07-16 23:20:00,
2013-07-16 19:26:00,87.2,71.6,30.24,NNE,18,0.0,0.0,60,0.00,,,0.00,Wunderground v.1.15,2013-07-16 23:26:00,
2013-07-16 19:32:00,87.3,70.7,30.24,NNE,21,0.0,0.0,58,0.00,,,0.00,Wunderground v.1.15,2013-07-16 23:32:00,
2013-07-16 19:38:00,87.4,72.8,30.24,NNE,27,0.0,0.0,62,0.00,,,0.00,Wunderground v.1.15,2013-07-16 23:38:00,
2013-07-16 19:44:00,87.4,72.8,30.25,NNE,27,0.0,0.0,62,0.00,,,0.00,Wunderground v.1.15,2013-07-16 23:44:00,
2013-07-16 19:50:00,87.6,72.5,30.25,NNE,27,0.0,0.0,61,0.00,,,0.00,Wunderground v.1.15,2013-07-16 23:50:00,
2013-07-16 19:56:00,88.1,72.5,30.25,NNE,27,0.0,0.0,60,0.00,,,0.00,Wunderground v.1.15,2013-07-16 23:56:00,
2013-07-16 20:02:00,88.9,74.7,30.25,NNE,27,0.0,0.0,63,0.00,,,0.00,Wunderground v.1.15,2013-07-17 00:02:00,
2013-07-16 20:08:00,89.1,74.4,30.25,SW,224,0.0,0.0,62,0.00,,,0.00,Wunderground v.1.15,2013-07-17 00:08:00,
2013-07-16 20:14:00,88.6,73.9,30.25,SW,224,0.0,0.0,62,0.00,,,0.00,Wunderground v.1.15,2013-07-17 00:14:00,
2013-07-16 20:20:00,87.7,74.0,30.25,SW,224,0.0,0.0,64,0.00,,,0.00,Wunderground v.1.15,2013-07-17 00:20:00,
2013-07-16 20:26:00,86.3,73.6,30.25,SW,224,0.0,0.0,66,0.00,,,0.00,Wunderground v.1.15,2013-07-17 00:26:00,
2013-07-16 20:32:00,84.9,73.2,30.24,SW,217,0.0,0.0,68,0.00,,,0.00,Wunderground v.1.15,2013-07-17 00:32:00,
2013-07-16 20:38:00,84.0,73.2,30.24,SW,217,0.0,0.0,70,0.00,,,0.00,Wunderground v.1.15,2013-07-17 00:38:00,
2013-07-16 20:44:00,83.4,73.0,30.24,SW,217,0.0,0.0,71,0.00,,,0.00,Wunderground v.1.15,2013-07-17 00:44:00,
2013-07-16 20:52:00,82.1,73.4,30.24,SW,220,0.0,0.0,75,0.00,,,0.00,Wunderground v.1.15,2013-07-17 00:52:00,
2013-07-16 20:58:00,81.2,72.9,30.24,SW,221,0.0,0.0,76,0.00,,,0.00,Wunderground v.1.15,2013-07-17 00:58:00,
2013-07-16 21:04:00,80.6,72.7,30.24,SW,225,0.0,0.0,77,0.00,,,0.00,Wunderground v.1.15,2013-07-17 01:04:00,
2013-07-16 21:10:00,79.9,72.4,30.24,SW,225,0.0,0.0,78,0.00,,,0.00,Wunderground v.1.15,2013-07-17 01:10:00,
2013-07-16 21:16:00,79.2,72.5,30.25,SW,225,0.0,0.0,80,0.00,,,0.00,Wunderground v.1.15,2013-07-17 01:16:00,
2013-07-16 21:22:00,78.8,72.1,30.24,SW,225,0.0,0.0,80,0.00,,,0.00,Wunderground v.1.15,2013-07-17 01:22:00,
2013-07-16 21:27:00,78.5,71.8,30.25,SW,225,0.0,0.0,80,0.00,,,0.00,Wunderground v.1.15,2013-07-17 01:27:00,
2013-07-16 21:34:00,78.4,71.7,30.25,SW,225,0.0,0.0,80,0.00,,,0.00,Wunderground v.1.15,2013-07-17 01:34:00,
2013-07-16 21:40:00,78.2,71.9,30.25,SW,226,0.0,0.0,81,0.00,,,0.00,Wunderground v.1.15,2013-07-17 01:40:00,
2013-07-16 21:46:00,77.7,72.8,30.25,WSW,238,0.0,0.0,85,0.00,,,0.00,Wunderground v.1.15,2013-07-17 01:46:00,
2013-07-16 21:52:00,77.2,72.0,30.25,WSW,238,0.0,0.0,84,0.00,,,0.00,Wunderground v.1.15,2013-07-17 01:52:00,
2013-07-16 21:57:00,76.9,71.7,30.25,WSW,238,0.0,0.0,84,0.00,,,0.00,Wunderground v.1.15,2013-07-17 01:57:00,
2013-07-16 22:03:00,76.7,70.8,30.25,SW,233,0.0,0.0,82,0.00,,,0.00,Wunderground v.1.15,2013-07-17 02:03:00,
2013-07-16 22:10:00,76.8,70.9,30.26,SW,235,0.0,0.0,82,0.00,,,0.00,Wunderground v.1.15,2013-07-17 02:10:00,
2013-07-16 22:16:00,76.7,70.8,30.26,SW,235,0.0,0.0,82,0.00,,,0.00,Wunderground v.1.15,2013-07-17 02:16:00,
2013-07-16 22:22:00,76.5,70.6,30.26,SW,235,0.0,0.0,82,0.00,,,0.00,Wunderground v.1.15,2013-07-17 02:22:00,
2013-07-16 22:28:00,76.4,70.5,30.26,SW,235,0.0,0.0,82,0.00,,,0.00,Wunderground v.1.15,2013-07-17 02:28:00,
2013-07-16 22:34:00,76.4,70.5,30.26,SW,235,0.0,0.0,82,0.00,,,0.00,Wunderground v.1.15,2013-07-17 02:34:00,
2013-07-16 22:39:00,76.1,70.2,30.26,SW,233,0.0,0.0,82,0.00,,,0.00,Wunderground v.1.15,2013-07-17 02:39:00,
2013-07-16 22:45:00,76.0,70.5,30.26,SW,233,0.0,0.0,83,0.00,,,0.00,Wunderground v.1.15,2013-07-17 02:45:00,
2013-07-16 22:51:00,75.9,70.4,30.26,SW,234,0.0,0.0,83,0.00,,,0.00,Wunderground v.1.15,2013-07-17 02:51:00,
2013-07-16 22:58:00,75.8,70.6,30.26,SW,229,0.0,0.0,84,0.00,,,0.00,Wunderground v.1.15,2013-07-17 02:58:00,
2013-07-16 23:04:00,75.7,70.5,30.26,SW,229,0.0,0.0,84,0.00,,,0.00,Wunderground v.1.15,2013-07-17 03:04:00,
2013-07-16 23:10:00,75.4,70.2,30.26,SW,229,0.0,0.0,84,0.00,,,0.00,Wunderground v.1.15,2013-07-17 03:10:00,
2013-07-16 23:15:00,75.3,70.5,30.26,SW,229,0.0,0.0,85,0.00,,,0.00,Wunderground v.1.15,2013-07-17 03:15:00,
2013-07-16 23:21:00,75.0,70.2,30.26,SW,229,0.0,0.0,85,0.00,,,0.00,Wunderground v.1.15,2013-07-17 03:21:00,
2013-07-16 23:28:00,74.9,70.8,30.26,SW,229,0.0,0.0,87,0.00,,,0.00,Wunderground v.1.15,2013-07-17 03:28:00,
2013-07-16 23:34:00,74.3,69.8,30.25,SW,229,0.0,0.0,86,0.00,,,0.00,Wunderground v.1.15,2013-07-17 03:34:00,
2013-07-16 23:40:00,74.2,70.1,30.25,SW,228,0.0,0.0,87,0.00,,,0.00,Wunderground v.1.15,2013-07-17 03:40:00,
2013-07-16 23:46:00,74.5,69.7,30.26,SW,228,0.0,0.0,85,0.00,,,0.00,Wunderground v.1.15,2013-07-17 03:46:00,
2013-07-16 23:52:00,74.5,69.7,30.25,SW,228,0.0,0.0,85,0.00,,,0.00,Wunderground v.1.15,2013-07-17 03:52:00,
2013-07-16 23:57:00,74.5,70.0,30.25,SW,227,0.0,0.0,86,0.00,,,0.00,Wunderground v.1.15,2013-07-17 03:57:00,